TimeEDT,TemperatureF,Dew PointF,Humidity,Sea Level PressureIn,VisibilityMPH,Wind Direction,Wind SpeedMPH,Gust SpeedMPH,PrecipitationIn,Events,Conditions,WindDirDegrees,DateUTC
12:53 AM,26.1,12.9,58,30.05,10.0,Calm,Calm,-,N/A,,Clear,0,2013-03-22 04:53:00
1:53 AM,25.0,14.0,63,30.05,10.0,Calm,Calm,-,N/A,,Clear,0,2013-03-22 05:53:00
2:53 AM,24.1,15.1,69,30.05,10.0,WNW,3.5,-,N/A,,Clear,290,2013-03-22 06:53:00
3:53 AM,24.1,15.1,69,30.05,10.0,Calm,Calm,-,N/A,,Clear,0,2013-03-22 07:53:00
4:53 AM,23.0,14.0,68,30.05,10.0,Calm,Calm,-,N/A,,Clear,0,2013-03-22 08:53:00
5:53 AM,23.0,15.1,72,30.06,10.0,WNW,3.5,-,N/A,,Clear,290,2013-03-22 09:53:00
6:53 AM,21.9,15.1,75,30.07,10.0,NW,3.5,-,N/A,,Clear,310,2013-03-22 10:53:00
7:53 AM,21.0,14.0,74,30.08,10.0,Calm,Calm,-,N/A,,Clear,0,2013-03-22 11:53:00
8:53 AM,25.0,17.1,72,30.08,10.0,Calm,Calm,-,N/A,,Clear,0,2013-03-22 12:53:00
9:53 AM,28.9,17.1,61,30.08,10.0,Calm,Calm,-,N/A,,Clear,0,2013-03-22 13:53:00
10:53 AM,32.0,15.1,50,30.08,10.0,Calm,Calm,-,N/A,,Clear,0,2013-03-22 14:53:00
11:53 AM,34.0,16.0,48,30.08,10.0,WNW,8.1,-,N/A,,Clear,300,2013-03-22 15:53:00
12:53 PM,37.0,15.1,41,30.08,10.0,Variable,4.6,-,N/A,,Clear,0,2013-03-22 16:53:00
1:53 PM,37.0,16.0,42,30.06,10.0,Variable,4.6,-,N/A,,Clear,0,2013-03-22 17:53:00
2:53 PM,39.0,17.1,41,30.04,10.0,West,9.2,-,N/A,,Clear,280,2013-03-22 18:53:00
3:53 PM,39.9,18.0,41,30.01,10.0,Calm,Calm,-,N/A,,Clear,0,2013-03-22 19:53:00
4:53 PM,41.0,16.0,36,30.01,10.0,Calm,Calm,-,N/A,,Clear,0,2013-03-22 20:53:00
5:53 PM,42.1,14.0,32,30.01,10.0,Variable,3.5,-,N/A,,Clear,0,2013-03-22 21:53:00
6:53 PM,41.0,14.0,33,30.02,10.0,Calm,Calm,-,N/A,,Clear,0,2013-03-22 22:53:00
7:53 PM,39.0,16.0,39,30.03,10.0,NW,3.5,-,N/A,,Clear,310,2013-03-22 23:53:00
8:53 PM,37.0,18.0,46,30.03,10.0,NNW,3.5,-,N/A,,Clear,340,2013-03-23 00:53:00
9:53 PM,35.1,19.9,54,30.04,10.0,Calm,Calm,-,N/A,,Clear,0,2013-03-23 01:53:00
10:53 PM,33.1,25.0,72,30.04,10.0,Calm,Calm,-,N/A,,Clear,0,2013-03-23 02:53:00
11:53 PM,34.0,26.1,73,30.05,10.0,Calm,Calm,-,N/A,,Clear,0,2013-03-23 03:53:00